Regional Weather Roundup
Issued by NWS

Home | Current Version | Previous Version | Text Only | Print | Product List | Glossary Off
Versions: 1 2 3 4 5 6 7 8 9 10 11 12 13 14 15 16 17 18 19 20 21 22 23 24 25 26 27 28 29 30 31 32 33 34 35 36 37 38 39 40 41 42 43 44 45 46 47 48 49 50

000
ASUS43 KBIS 121620
RWRND

NORTH DAKOTA REGIONAL WEATHER ROUNDUP
NATIONAL WEATHER SERVICE BISMARCK ND
1100 AM CDT SAT JUL 12 2014

NOTE: "FAIR" INDICATES FEW OR NO CLOUDS BELOW 12,000 FEET WITH NO
SIGNIFICANT WEATHER AND/OR OBSTRUCTIONS TO VISIBILITY.


NDZ001>003-009>011-017-121700-
NORTHWEST NORTH DAKOTA

CITY           SKY/WX    TMP DP  RH WIND       PRES   REMARKS
WILLISTON      PTSUNNY   76  53  44 SW13      30.11F
MINOT          SUNNY     73  51  46 W10       30.07F
$$

NDZ018>021-031>035-040>046-121700-
SOUTHWEST NORTH DAKOTA

CITY           SKY/WX    TMP DP  RH WIND       PRES   REMARKS
BISMARCK       PTSUNNY   71  59  65 W8        30.11S
DICKINSON      MOSUNNY   68  60  75 SW7       30.14S
GARRISON         N/A     70  59  68 W8        30.10S
HETTINGER ARPT MOSUNNY   69  60  73 SW7       30.16R
$$

NDZ004>008-012>016-024-026-027-054-121700-
NORTHEAST NORTH DAKOTA

CITY           SKY/WX    TMP DP  RH WIND       PRES   REMARKS
GRAND FORKS    CLOUDY    70  57  63 SW9       30.02F
DEVILS LAKE    MOSUNNY   72  57  60 W13       30.04S
$$

NDZ022-023-025-028>030-036>039-047>053-121700-
SOUTHEAST NORTH DAKOTA

CITY           SKY/WX    TMP DP  RH WIND       PRES   REMARKS
FARGO          CLOUDY    72  59  63 VRB6      30.03F
JAMESTOWN      CLOUDY    70  58  65 SW5       30.07F
$$




USA.gov is the U.S. government's official web portal to all federal, state and local government web resources and services.